www.pogodaiklimat.ru

Погода и климат >> Архив погоды >> Россия >> Ненецкий АО >> Шойна


АРХИВ ПОГОДЫ в Шойне

Время (UTC), дата Ветер
(напр.,м/с)
 
Видим.   Явления Облачность Т
(С)
Тd
(С)
f
(%)
Тe
(С)
Тes
(С)
Комфортность P
(гПа)
Po
(гПа)
Тmin
(С)
Tmax
(С)
R
(мм)
R24
(мм)
S
(см)
06 9.01 В 3 20 км 1/0
[Cc]
-22.4 -23.8 88 -30 -30 1013.3 1012.7 -23.3
09 9.01 В 1 20 км 3/0
[Cc]
-22.1 -23.5 88 -25 -25 1014.8 1014.1
12 9.01 В 2 20 км 3/1 600 м
[Sc Ac trans]
-22.5 -24.0 88 -29 -29 1015.7 1015.0
15 9.01 ЮВ 2 20 км 3/3 600 м
[Sc]
-19.4 -20.5 91 -25 -25 1015.8 1015.1 -19.4
18 9.01 ЮВ 2 20 км ясно -21.1 -22.4 89 -27 -27 1016.3 1015.6
21 9.01 ЮВ 2 20 км ясно -20.9 -22.1 90 -27 -27 1016.7 1016.0
00 10.01 ЮВ 2 20 км ясно -22.4 -23.8 88 -29 -29 1016.0 1015.3
03 10.01 ЮВ 2 20 км ясно -22.4 -23.9 88 -29 -29 1015.8 1015.1 -23.0 6
06 10.01 ЮВ 1 20 км ясно -22.1 -23.4 89 -25 -25 1015.4 1014.7
09 10.01 Ю 2 20 км 1/0
[Ci fib]
-21.7 -23.1 88 -28 -28 1013.7 1013.0
12 10.01 Ю 4 20 км 8/8 600 м
[Sc]
-22.8 -24.2 88 -32 -32 опасность
обморожения
1011.9 1011.2
15 10.01 Ю 5 20 км в посл. час ливневой снег 10/10 600 м
[Sc]
-16.4 -17.2 94 -26 -26 1007.4 1006.7 -16.4 0.0
18 10.01 Ю 7 4000 м слаб. ливневой снег 10/10 300 м
[Cb calv]
-9.2 -9.1 100 -18 -18 1003.0 1002.4
21 10.01 Ю 12-15
{15}
4000 м слаб. снег 10/10 300 м
[Frnb Ns]
-7.1 -7.3 98 -18 -18 997.0 996.4
00 11.01 Ю 15-19
{21}
4000 м слаб. снег 10/10 300 м
[Frnb Ns]
-6.8 -7.1 98 -19 -19 991.5 990.9
03 11.01 Ю 16-21
{21}
<100 м сильная метель ?/? -8.5 -8.5 100 -21 -21 985.7 985.2 -16.4 0.5 6
06 11.01 Ю 17-20
{22}
<100 м сильн. снег {метель} 10/10 300 м
[Frnb Ns]
-8.6 -8.6 100 -22 -22 981.1 980.4
09 11.01 Ю 17-21
{22}
<100 м сильн. снег {метель} 10/10 300 м
[Frnb Ns]
-7.1 -7.3 98 -20 -20 978.4 977.8
12 11.01 Ю 14-17
{21}
<100 м сильн. снег {метель} 10/10 300 м
[Frnb Ns]
-5.8 -5.9 99 -17 -17 976.5 975.9
15 11.01 Ю 15-19
{21}
500 м сильн. снег {метель} 10/10 300 м
[Frnb Ns]
-5.1 -5.1 100 -17 -17 976.0 975.4 -4.8 4
18 11.01 Ю 12-15
{19}
500 м снег {метель} 10/10 300 м
[Frnb Ns]
-5.6 -5.9 98 -16 -16 975.2 974.6
21 11.01 Ю 11-14
{14}
4000 м слаб. снег {метель} 10/10 300 м
[Frnb Ns]
-5.8 -6.0 98 -16 -16 974.8 974.2
00 12.01 Ю 10-12
{14}
4000 м слаб. снег {метель} 10/10 300 м
[Frnb Ns]
-6.4 -6.4 100 -17 -17 974.2 973.6
03 12.01 Ю 10-13
{13}
4000 м слаб. снег {метель} 10/10 300 м
[Frnb Ns]
-5.6 -5.6 100 -16 -16 974.2 973.6 -6.6 0.3
06 12.01 Ю 8-10
{13}
4000 м позёмок {снег} 10/10 600 м
[Sc]
-6.0 -6.0 100 -15 -15 974.5 973.9
09 12.01 Ю 9-10
{11}
4000 м позёмок 10/4 600 м
[Sc Ac As]
-5.6 -5.6 100 -15 -15 975.0 974.4
12 12.01 Ю 8-10
{11}
4000 м позёмок 10/3 600 м
[Sc Ac As]
-6.2 -6.2 100 -15 -15 975.0 974.4
15 12.01 Ю 8-10
{11}
4000 м позёмок 10/0
[Ac As]
-8.0 -8.1 99 -18 -18 975.2 974.6 -5.5 0.2
18 12.01 Ю 8
{10}
20 км ледяные иглы {метель} 10/10 600 м
[Sc]
-8.6 -8.7 99 -18 -18 975.0 974.3
21 12.01 ЮВ 6 20 км позёмок 10/10 600 м
[Sc]
-7.9 -7.9 100 -16 -16 974.4 973.8
00 13.01 ЮВ 6 4000 м слаб. снег {метель} 10/10 300 м
[Frnb Ns]
-6.2 -6.2 100 -14 -14 974.0 973.4
03 13.01 ЮВ 6 4000 м слаб. снег {метель} 10/10 300 м
[Frnb Ns]
-7.0 -7.0 100 -15 -15 973.4 972.8 -9.0 0.2 9
06 13.01 Ю 7 20 км позёмок {снег} 10/10 600 м
[Sc]
-6.1 -6.1 100 -15 -15 972.9 972.3
09 13.01 Ю 6 4000 м слаб. снег {метель} 10/10 300 м
[Frnb Ns]
-5.2 -5.5 98 -13 -13 973.1 972.5
12 13.01 Ю 6 4000 м слаб. снег {метель} 9/9 300 м
[Frnb As op]
-7.5 -7.5 100 -16 -16 973.2 972.6
15 13.01 Ю 5 4000 м слаб. снег 10/6 300 м
[Frnb As op]
-7.1 -7.1 100 -15 -15 973.6 973.0 -5.1 0.5
18 13.01 Ю 3 4000 м слаб. снег 10/4 300 м
[Frnb As op]
-7.5 -7.6 99 -13 -13 974.0 973.4
21 13.01 ЮВ 4 4000 м слаб. снег 10/8 300 м
[Frnb As op]
-6.1 -6.3 98 -13 -13 975.1 974.4
00 14.01 Ю 4 4000 м слаб. снег 10/10 300 м
[Frnb Ns]
-5.8 -6.0 98 -13 -13 975.7 975.1
03 14.01 Ю 4 20 км {снег} 10/10 600 м
[Sc]
-6.8 -7.1 98 -14 -14 977.1 976.4 -8.1 2 11
06 14.01 Ю 2 20 км {снег} 9/9 300 м
[Cb calv]
-6.8 -7.0 98 -11 -11 978.7 978.0
09 14.01 СЗ 3 20 км 10/10 600 м
[Sc]
-5.1 -5.4 98 -11 -11 981.7 981.0
12 14.01 штиль 0 20 км {туман} 9/9 600 м
[Sc]
-5.8 -6.1 98 -7 -7 984.0 983.3
15 14.01 В 2 4000 м слаб. ливневой снег 10/10 300 м
[Cb calv]
-6.8 -7.0 98 -11 -11 986.0 985.3 -3.6 0.0
18 14.01 ЮЗ 6 20 км {ливн. осадки} 9/9 300 м
[Cb calv]
-3.7 -3.7 100 -11 -11 987.6 987.0
21 14.01 ЮЗ 5 20 км 10/10 600 м
[Sc]
-4.3 -4.3 100 -12 -12 989.2 988.6
00 15.01 ЮЗ 4 4000 м слаб. ливневой снег 10/10 300 м
[Cb calv]
-4.5 -4.7 99 -11 -11 990.3 989.7
03 15.01 Ю 5 20 км {ливн. осадки} 10/10 600 м
[Sc]
-7.2 -7.2 100 -15 -15 991.2 990.6 -9.0 0.0 11
06 15.01 ЮЗ 4 20 км {ливн. осадки} 9/9 600 м
[Sc]
-5.8 -5.8 100 -13 -13 992.0 991.4
09 15.01 Ю 5 20 км 9/9 600 м
[Sc]
-8.4 -8.5 99 -16 -16 993.0 992.4
12 15.01 Ю 5 20 км 9/9 600 м
[Sc]
-8.4 -8.5 99 -16 -16 993.0 992.4
15 15.01 ЮВ 3 20 км 10/10 600 м
[Sc]
-7.6 -7.7 99 -14 -14 993.5 992.9
18 15.01 ЮВ 3 20 км 10/10 600 м
[Sc]
-7.5 -8.3 94 -13 -13 994.3 993.7 -5.8
21 15.01 ЮВ 4 4000 м слаб. ливневой снег 10/10 300 м
[Cb calv]
-6.7 -7.5 94 -13 -13 995.1 994.5
00 16.01 ЮВ 3 20 км {ливн. осадки} 10/10 600 м
[Sc]
-6.6 -7.8 91 -12 -12 995.7 995.1
03 16.01 В 5 20 км 10/10 600 м
[Sc]
-7.1 -7.7 95 -15 -15 996.2 995.5 -7.6 11

 

Местоположение метеостанции Шойна (Ненецкий АО, Россия): широта 67.88 долгота 44.17 высота над уровнем моря 8 м.

В архиве по умолчанию представлена погода в Шойне за последнюю неделю. Архивные данные за месяц целиком и за предыдущие месяцы, начиная с января 2011 года, Вы можете получить, выбрав интересующий диапазон дат из раскрывающегося списка и нажав кнопку "Ввод!".


*Определитесь, кто Вы:
робот инопланетянин человек

Внимание! Время в таблицах - всемирное. Для получения местного времени необходимо прибавить поправку, которая равна 3 ч.

Смотрите также архив погоды в соседних городах и на ближайших метеорологических станциях:

Погода в Канином Носе (Ненецкий АО, Россия) (93 км)
Погода на Мысе Микулкин (Ненецкий АО, Россия) (105 км)
Погода в Неси (Ненецкий АО, Россия) (144 км)
Погода на Моржовец Острове (Архангельская область, Россия) (148 км)
Погода в Абрамовском маяке (Архангельская область, Россия) (172 км)
Погода в Святом Носе (Мурманская область, Россия) (186 км)
Погода в Индиге (Ненецкий АО, Россия) (191 км)
Погода в Иоканьге (Мурманская область, Россия) (196 км)
Погода в Нижней Пеше (Ненецкий АО, Россия) (199 км)
Погода в Каневке (Мурманская область, Россия) (209 км)

Пояснения к столбцам:

Ветер - указаны скорость ветра в м/с - средняя за 10 мин, порывы в срок и между сроками (в фигурных скобках) и направление, откуда дует ветер: С - северный, СВ - северо-восточный, В - восточный, ЮВ - юго-восточный, Ю - южный, ЮЗ - юго-западный, З - западный, СЗ - северо-западный.
Видимость - горизонтальная дальность видимости в метрах или километрах. При видимости от 1 до 10 км при отсутствии осадков обычно наблюдается дымка, при ухудшении видимости до 1 км и менее - туман. В сухую погоду видимость может ухудшаться дымом, пылью или мглою.
Явления - указаны атмосферные явления, наблюдавшиеся в срок или в последний час перед сроком; фигурными скобками обозначены явления, наблюдавшиеся между сроками (за 1-3 часа до срока); квадратными скобками обозначены град или гололедные отложения с указанием их диаметра в мм.
Облачность - указаны через наклонную черту общая и нижняя облачность в баллах и высота нижней границы облаков в метрах; квадратными скобками обозначены формы облаков: Ci - перистые, Cs - перисто-слоистые, Cc - перисто-кучевые, Ac - высококучевые, As - высокослоистые, Sc - слоисто-кучевые, Ns - слоисто-дождевые, Cu - кучевые, Cb - кучево-дождевые. Подробнее классификацию облаков см. в Атласе облаков (PDF).
T - Температура воздуха - температура, измеренная на высоте 2 м над землей.
Td - Температура точки росы - температура, при понижении до которой содержащийся в воздухе водяной пар достигнет насыщения.
f - Относительная влажность воздуха - влажноcть воздуха, измеренная на высоте 2 м над землей.
Te - Эффективная температура - температура, которую ощущает одетый по сезону человек в тени. Характеристика душности погоды. При расчете учитывается влияние влажности воздуха и скорости ветра на теплоощущения человека.
Tes - Эффективная температура на солнце - температура, которую ощущает человек, с поправкой на солнечный нагрев. Характеристика знойности погоды. Зависит от высоты солнца над горизонтом, облачности и скорости ветра. Ночью, в пасмурную погоду, а также при ветре 12 м/с и более поправка равна нулю.
P - Атмосферное давление - приведенное к уровню моря атмосферное давление.
Po - Атмосферное давление - измеренное на уровне метеостанции атмосферное давление.
Tmin - Минимальная температура - минимум температуры воздуха на высоте 2 м над землей.
Tmax - Максимальная температура - максимум температуры воздуха на высоте 2 м над землей.
R - Количество осадков - Количество выпавших осадков за период времени, мм. При наведении курсора мыши на число - период времени, за который выпало указанное количество осадков.
R24 - Количество осадков - Количество выпавших осадков за 24 часа, мм.
S - Снежный покров - Высота снежного покрова, см. При наведении курсора мыши на число - состояние снежного покрова и степень покрытия местности в баллах.